Meteo Giornale » Osservazioni meteo Tailandia » Chiang Rai Intl
ore: 12:00 - Osservazioni Meteo Chiang Rai Intl
Lat. 19° 57' N Lon. 99° 53' E Alt. 390 metri s.l.m.
30 °C
Nuvoloso
Temp. 24 Ore
25 °C
31 °C
Nord
7.4 Km/h
Dew point 24 °C
Umidità 70 %
Visibilità 10 Km
Il sole sorge alle ore 06:04
Il sole tramonta alle ore 18:36
| Data e Ora | Cielo e Fenomeni | T °C | DP °C | Um. % | Pres. hPa | Vis. km | Vento km/h | |
|---|---|---|---|---|---|---|---|---|
| Oggi h: 12:00 | Nuvoloso | 30 | 24 | 70 | 1010 | 10 | N 7.4 | |
| Oggi h: 11:00 | Molto Nuvoloso | 29 | 24 | 74 | 1011 | 10 | E 7.4 | |
| Oggi h: 10:00 | Molto Nuvoloso | 28 | 24 | 78 | 1011 | 10 | N 3.7 | |
| Oggi h: 09:00 | Molto Nuvoloso | 26 | 24 | 88 | 1011 | 10 | S 7.4 | |
| Oggi h: 08:00 | Molto Nuvoloso | 26 | 24 | 88 | 1011 | 10 | S 7.4 | |
| Oggi h: 07:00 | Molto Nuvoloso | 25 | 24 | 94 | 1010 | 10 | N 3.7 | |
| Oggi h: 06:00 | Molto Nuvoloso | 25 | 24 | 94 | 1010 | 10 | N 3.7 | |
| Oggi h: 05:00 | Molto Nuvoloso | 25 | 24 | 94 | 1009 | 10 | N 3.7 | |
| Oggi h: 04:00 | Molto Nuvoloso | 25 | 24 | 94 | 1009 | 10 | N 5.5 | |
| Oggi h: 03:00 | Molto Nuvoloso | 25 | 24 | 94 | 1009 | 10 | N 3.7 | |
| Oggi h: 02:00 | Molto Nuvoloso | 25 | 24 | 94 | 1010 | 10 | N 5.5 | |
| Oggi h: 01:00 | Molto Nuvoloso | 25 | 24 | 94 | 1010 | 10 | N 5.5 | |
| Oggi h: 00:00 | Molto Nuvoloso | 25 | 24 | 94 | 1010 | 10 | N 3.7 | |
| Ieri h: 23:00 | Molto Nuvoloso | 25 | 24 | 94 | 1010 | 10 | N 5.5 | |
| Ieri h: 22:00 | Molto Nuvoloso | 25 | 24 | 94 | 1010 | 10 | N 0 | |
| Ieri h: 21:00 | Molto Nuvoloso | 26 | 24 | 88 | 1008 | 10 | N 3.7 | |
| Ieri h: 20:00 | Molto Nuvoloso | 26 | 24 | 88 | 1008 | 10 | N 3.7 | |
| Ieri h: 19:00 | Molto Nuvoloso | 26 | 25 | 94 | 1007 | 10 | N 5.5 | |
| Ieri h: 18:00 | Temporale | 29 | 25 | 79 | 1006 | 10 | N 7.4 | |
| Ieri h: 17:00 | Pioggia | 30 | 25 | 74 | 1006 | 10 | N 1.8 | |
| Ieri h: 16:00 | Pioggia nelle vicinanze | 31 | 25 | 70 | 1005 | 10 | O/SO 14.8 | |
| Ieri h: 15:00 | Molto Nuvoloso | 31 | 24 | 66 | 1006 | 10 | N 5.5 | |
| Ieri h: 14:00 | Molto Nuvoloso | 31 | 25 | 70 | 1007 | 10 | N 3.7 | |



